TITAN 3C TRANSTAGE DEB, 26527

Orbit data source: Space-Track

TITAN 3C TRANSTAGE DEB, 26527 is space debris in HEO originally from a launch on Tue, 21 Dec 1965 UTC launched from the Air Force Eastern Test Range (AFETR). Debris objects in space refer to the collection of defunct objects orbiting the Earth. Examples of debris include non-operational satellites, rocket bodies, and fragments generated from explosions, collisions, or faulty payload assembly.

Loading next visibility...
TITAN 3C TRANSTAGE DEB details
Identifier
26527, 1965-108AN
Orbit
HEO
Last TLE update5 days ago
Origin
Flag of USUSAF SSD (US)
ManufacturerUnknown
MissionSpacecraft
Bus & MotorUnknown
MassUnknown
Launch date (UTC)
1965-12-21 (59 years ago)
Launch vehicleUnknown
Launch site
Air Force Eastern Test Range (AFETR)
Object type
Payload
Rocket body
Debris
Shape & HBRUnknown
Radar Cross SectionSmall (<0.1 m²)

Expand to show TLE details & history

TLE from 5 days ago
0 TITAN 3C TRANSTAGE DEB
1 26527U 65108AN  24352.20617247  .00000251  00000-0  42883-2 0  9992
2 26527  26.5932 172.1415 6761997 151.5782   1.6886  2.71302082254944
Epoch: 2024-12-17T04:56Z
Definitive object data (Epoch: 2024-12-17T04:56:53.301Z)
Latitude7.10514°
Longitude177.28071°
Altitude724.231 km
Speed9.69 km/s
True Right ascension22h 31m 17s
True Declination7° 03' 46"
Sunlit
Object was in daylight at TLE epoch
Visualization TLE readout
Latitude-4.71287°
Longitude0.04141°
Altitude27,771.723 km
Speed2.234 km/s
Apparent Right ascension11h 15m 04s
Apparent Declination-11° 18' 04"
Sunlit
Object is in daylight
Visualization observer readout
Local Sidereal Time04:41:57
Azimuth93.519° ESE
Elevation-13.537°
Doppler factor1
Orbital elements
Apogee altitude30,027.061 km
Perigee altitude654.446 km
Semi-major axis21,718.891 km
Eccentricity0.6761997
Inclination26.5932°
RAAN172.1415°
Arg. of periapsis151.5782°
True anomaly11.79753°
Mean anomaly1.6886°
Eccentric anomaly5.20004°
Mean motion0.67809 °/min
BSTAR0.0042883
Orbital period530.9 mins
Loading maneuver chart data...

TITAN 3C TRANSTAGE DEB Visibility forecast

Observer location: undefined°, undefined

Span
Click to sort rows by Start time (UTC) header in descending order
Start Az.
Max El. time (UTC)
Max El. Az.
Max El.
End time (UTC)
End Az.
394 mins2024-12-22 10:50:20.013Z210.239° SW2024-12-22 17:13:20.013Z184.098° SSW39.639°2024-12-22 17:24:20.013Z110.818° ESE
|